Regional Weather Roundup
Issued by NWS Midland/Odessa, TX

Skip options and go directly to product.
Home | Oldest Version | Previous Version | Current Version | All | Text Only | Save Text | Print | Product List | Glossary Off

Skip product version selection by date and time.   

996
ASUS44 KMAF 271401
RWRMAF
MIDLAND AREA WEATHER ROUNDUP
NATIONAL WEATHER SERVICE MIDLAND TX
900 AM CDT TUE SEP 27 2016

...IN SOUTHWEST TEXAS AND SOUTHEAST NEW MEXICO...

CITY           SKY/WX    TMP DP  RH WIND       PRES   REMARKS
ALPINE         PTSUNNY   49  47  92 CALM      30.34S
ANDREWS        FAIR      55  55 100 W6        30.25S
ARTESIA        CLOUDY    55  54  94 CALM      30.27R
BIG SPRING     CLOUDY    58  53  86 SW5       30.25R
CARLSBAD       SUNNY     55  50  83 SW5       30.25R
DRYDEN         NOT AVBL
FORT STOCKTON  CLOUDY    54  51  90 SW5       30.26S
GUAD PASS      PTSUNNY   53  36  52 NE17      30.31R
HOBBS          MOSUNNY   54  54 100 SW8       30.27R
MARFA          CLOUDY   N/A N/A N/A MISG      30.30S
MIDLAND AIRPK  PTSUNNY   58  53  82 W8        30.25R
MIDLAND INTL   PTSUNNY   58  53  84 W9        30.24R
ODESSA         CLOUDY    57  52  83 W8        30.26R
PECOS          CLOUDY    57  52  85 CALM        N/A
PRESIDIO       CLOUDY    59  53  79 CALM      30.24R
SEMINOLE       SUNNY     55  53  94 W5        30.26S
SNYDER           N/A     59  49  69 CALM      30.23R
WINK           CLOUDY    56  53  90 W5        30.25R
$$
...OTHER STATIONS IN TEXAS...

CITY           SKY/WX    TMP DP  RH WIND       PRES   REMARKS
ABILENE        CLOUDY    60  52  74 NW5       30.20S
AMARILLO       MOSUNNY   53  40  61 SW5       30.23F
AUSTIN         CLOUDY    70  63  78 N8        30.09R
BROWNSVILLE    RAIN      75  73  93 NE10      30.00R
CORPUS CHRISTI CLOUDY    72  69  90 N12       30.04R
DALLAS FTW     PTSUNNY   68  54  60 N7        30.12S
DEL RIO        CLOUDY    66  57  72 NW12      30.15S
EL PASO        CLOUDY    57  43  59 CALM      30.26S
HOUSTON INT    CLOUDY    72  68  87 N9        30.04R
LUBBOCK        PTSUNNY   55  44  66 NW7       30.24S
SAN ANGELO     MOSUNNY   64  50  60 NW7       30.20R
SAN ANTONIO    CLOUDY    68  62  81 N9        30.09R
WACO           CLOUDY    69  62  78 N9        30.11R
WICHITA FALLS  NOT AVBL
$$
...OTHER LOCATIONS IN NEW MEXICO...

CITY           SKY/WX    TMP DP  RH WIND       PRES   REMARKS
ALAMAGORDO     SUNNY     54  54 100 N3          N/A
ALBUQUERQUE    CLOUDY    52  35  52 N10       30.31R
CANNON AFB     NOT AVBL
CLOVIS         SUNNY     52  41  66 NW6       30.26S
HOLLOMAN AFB   SUNNY     52  52 100 E2        30.27S
ROSWELL        PTSUNNY   56  49  77 S3        30.26S
RUIDOSO        CLOUDY    48  32  53 SW5       30.38R
SANTA FE       SUNNY     45  33  63 N8        30.36R
TRUTH OR CONSE CLOUDY    56  52  86 CALM      30.29S
TUCUMCARI      CLOUDY    53  39  59 W5        30.25S
$$

USA.gov is the U.S. government's official web portal to all federal, state and local government web resources and services.